Hourly Weather Alife

Today, 28 February, Sunday

Time Temperature Precipitation Wind Pressure Humidity
00:00 +9°C° 0 mm 2 mps 747 mmHg 77%
01:00 +8°C° 0 mm 3 mps 747 mmHg 78%
02:00 +8°C° 0 mm 3 mps 747 mmHg 79%
03:00 +8°C° 0 mm 3 mps 747 mmHg 81%
04:00 +7°C° 0 mm 3 mps 747 mmHg 82%
05:00 +7°C° 0 mm 3 mps 747 mmHg 82%
06:00 +7°C° 0 mm 3 mps 747 mmHg 83%
07:00 +5°C° 0 mm 3 mps 748 mmHg 83%
08:00 +8°C° 0 mm 3 mps 748 mmHg 77%
09:00 +10°C° 0 mm 3 mps 748 mmHg 71%
10:00 +11°C° 0 mm 3 mps 749 mmHg 65%
11:00 +12°C° 0 mm 3 mps 749 mmHg 60%
12:00 +13°C° 0 mm 3 mps 749 mmHg 55%
13:00 +14°C° 0 mm 3 mps 749 mmHg 50%
14:00 +14°C° 0 mm 3 mps 749 mmHg 52%
15:00 +14°C° 0 mm 3 mps 749 mmHg 54%
16:00 +13°C° 0 mm 3 mps 749 mmHg 55%
17:00 +12°C° 0 mm 3 mps 749 mmHg 63%
18:00 +10°C° 0 mm 3 mps 749 mmHg 70%
19:00 +8°C° 0 mm 3 mps 749 mmHg 78%
20:00 +7°C° 0 mm 2 mps 749 mmHg 79%
21:00 +7°C° 0 mm 2 mps 749 mmHg 81%
22:00 +6°C° 0 mm 2 mps 750 mmHg 82%
23:00 +6°C° 0 mm 2 mps 750 mmHg 82%

Tomorrow, 1 March, Monday

Time Temperature Precipitation Wind Pressure Humidity
00:00 +5°C° 0 mm 2 mps 750 mmHg 81%
01:00 +5°C° 0 mm 2 mps 750 mmHg 81%
02:00 +5°C° 0 mm 2 mps 749 mmHg 80%
03:00 +5°C° 0 mm 2 mps 749 mmHg 80%
04:00 +4°C° 0 mm 2 mps 749 mmHg 80%
05:00 +4°C° 0 mm 2 mps 749 mmHg 80%
06:00 +4°C° 0 mm 2 mps 749 mmHg 79%
07:00 +4°C° 0 mm 2 mps 749 mmHg 78%
08:00 +6°C° 0 mm 2 mps 750 mmHg 70%
09:00 +8°C° 0 mm 2 mps 750 mmHg 61%
10:00 +12°C° 0 mm 2 mps 750 mmHg 53%
11:00 +13°C° 0 mm 2 mps 750 mmHg 48%
12:00 +14°C° 0 mm 2 mps 750 mmHg 43%
13:00 +16°C° 0 mm 1 mps 750 mmHg 39%
14:00 +15°C° 0 mm 1 mps 750 mmHg 41%
15:00 +15°C° 0 mm 2 mps 749 mmHg 44%
16:00 +15°C° 0 mm 2 mps 749 mmHg 47%
17:00 +13°C° 0 mm 2 mps 749 mmHg 55%
18:00 +10°C° 0 mm 2 mps 749 mmHg 64%
19:00 +8°C° 0 mm 2 mps 750 mmHg 72%
20:00 +8°C° 0 mm 2 mps 750 mmHg 75%
21:00 +7°C° 0 mm 2 mps 750 mmHg 77%
22:00 +6°C° 0 mm 2 mps 750 mmHg 80%
23:00 +6°C° 0 mm 2 mps 750 mmHg 78%

Day after tomorrow, 2 March, Tuesday

Time Temperature Precipitation Wind Pressure Humidity
00:00 +6°C° 0 mm 2 mps 750 mmHg 76%
01:00 +5°C° 0 mm 2 mps 750 mmHg 74%
02:00 +5°C° 0 mm 2 mps 750 mmHg 72%
03:00 +5°C° 0 mm 2 mps 750 mmHg 70%
04:00 +5°C° 0 mm 2 mps 750 mmHg 67%
05:00 +5°C° 0 mm 2 mps 750 mmHg 67%
06:00 +5°C° 0 mm 2 mps 750 mmHg 67%
07:00 +5°C° 0 mm 2 mps 751 mmHg 67%
08:00 +7°C° 0 mm 2 mps 751 mmHg 63%
09:00 +9°C° 0 mm 2 mps 751 mmHg 59%
10:00 +13°C° 0 mm 2 mps 752 mmHg 55%
11:00 +14°C° 0 mm 2 mps 752 mmHg 51%
12:00 +15°C° 0 mm 2 mps 752 mmHg 48%
13:00 +16°C° 0 mm 2 mps 752 mmHg 45%
14:00 +16°C° 0 mm 2 mps 752 mmHg 46%
15:00 +16°C° 0 mm 2 mps 752 mmHg 48%
16:00 +16°C° 0 mm 2 mps 752 mmHg 49%
17:00 +14°C° 0 mm 2 mps 752 mmHg 58%
18:00 +12°C° 0 mm 1 mps 752 mmHg 66%
19:00 +10°C° 0 mm 1 mps 752 mmHg 75%
20:00 +9°C° 0 mm 1 mps 752 mmHg 77%
21:00 +9°C° 0 mm 1 mps 752 mmHg 79%
22:00 +8°C° 0 mm 1 mps 752 mmHg 82%
23:00 +8°C° 0 mm 1 mps 752 mmHg 82%

3 March, Wednesday

Time Temperature Precipitation Wind Pressure Humidity
00:00 +8°C° 0 mm 1 mps 752 mmHg 82%
01:00 +7°C° 0 mm 1 mps 752 mmHg 83%
02:00 +7°C° 0 mm 1 mps 752 mmHg 81%
03:00 +7°C° 0 mm 1 mps 752 mmHg 79%
04:00 +7°C° 0 mm 1 mps 752 mmHg 77%
05:00 +6°C° 0 mm 1 mps 752 mmHg 75%
06:00 +6°C° 0 mm 1 mps 752 mmHg 73%
07:00 +6°C° 0 mm 1 mps 751 mmHg 71%
08:00 +9°C° 0 mm 1 mps 752 mmHg 63%
09:00 +11°C° 0 mm 1 mps 752 mmHg 56%
10:00 +12°C° 0 mm 0 mps 752 mmHg 49%
11:00 +14°C° 0 mm 1 mps 752 mmHg 47%
12:00 +15°C° 0 mm 1 mps 751 mmHg 45%
13:00 +16°C° 0 mm 1 mps 751 mmHg 43%
14:00 +16°C° 0 mm 1 mps 751 mmHg 46%
15:00 +16°C° 0 mm 1 mps 751 mmHg 49%
16:00 +15°C° 0 mm 2 mps 750 mmHg 52%
17:00 +13°C° 0 mm 1 mps 750 mmHg 62%
18:00 +12°C° 0 mm 1 mps 750 mmHg 71%
19:00 +9°C° 0 mm 0 mps 750 mmHg 81%
20:00 +8°C° 0 mm 0 mps 750 mmHg 82%
21:00 +8°C° 0 mm 0 mps 750 mmHg 83%
22:00 +7°C° 0 mm 0 mps 750 mmHg 84%
23:00 +7°C° 0 mm 0 mps 749 mmHg 85%

4 March, Thursday

Time Temperature Precipitation Wind Pressure Humidity
00:00 +7°C° 0 mm 0 mps 749 mmHg 85%
01:00 +7°C° 0 mm 0 mps 749 mmHg 85%
02:00 +6°C° 0 mm 0 mps 749 mmHg 85%
03:00 +6°C° 0 mm 0 mps 748 mmHg 84%
04:00 +6°C° 0 mm 0 mps 748 mmHg 84%
05:00 +6°C° 0 mm 0 mps 747 mmHg 84%
06:00 +6°C° 0 mm 0 mps 747 mmHg 84%
07:00 +6°C° 0 mm 0 mps 747 mmHg 84%
08:00 +9°C° 0 mm 1 mps 747 mmHg 79%
09:00 +11°C° 0 mm 1 mps 747 mmHg 75%
10:00 +13°C° 0 mm 1 mps 747 mmHg 70%
11:00 +13°C° 0 mm 2 mps 746 mmHg 67%
12:00 +14°C° 0 mm 2 mps 746 mmHg 64%
13:00 +14°C° 0 mm 2 mps 745 mmHg 61%
14:00 +14°C° 0 mm 2 mps 745 mmHg 62%
15:00 +14°C° 0 mm 2 mps 744 mmHg 64%
16:00 +13°C° 0 mm 2 mps 744 mmHg 65%
17:00 +12°C° 0 mm 2 mps 744 mmHg 71%
18:00 +9°C° 0 mm 2 mps 744 mmHg 77%
19:00 +9°C° 0 mm 1 mps 743 mmHg 83%
20:00 +9°C° 0 mm 1 mps 743 mmHg 84%
21:00 +8°C° 0 mm 1 mps 743 mmHg 85%
22:00 +8°C° 0 mm 1 mps 743 mmHg 86%
23:00 +8°C° 0 mm 1 mps 743 mmHg 86%

5 March, Friday

Time Temperature Precipitation Wind Pressure Humidity
00:00 +8°C° 0 mm 1 mps 742 mmHg 86%
01:00 +7°C° 0 mm 1 mps 742 mmHg 87%
02:00 +7°C° 0 mm 1 mps 742 mmHg 86%
03:00 +8°C° 0 mm 1 mps 741 mmHg 86%
04:00 +8°C° 0 mm 1 mps 741 mmHg 86%
05:00 +7°C° 0 mm 0 mps 741 mmHg 86%
06:00 +6°C° 0 mm 0 mps 741 mmHg 86%
07:00 +6°C° 0 mm 0 mps 740 mmHg 87%
08:00 +9°C° 0 mm 1 mps 740 mmHg 81%
09:00 +10°C° 0 mm 1 mps 741 mmHg 75%
10:00 +12°C° 0 mm 1 mps 741 mmHg 69%
11:00 +12°C° 0.1 mm 2 mps 740 mmHg 69%
12:00 +13°C° 0.1 mm 2 mps 740 mmHg 68%
13:00 +13°C° 0.1 mm 2 mps 740 mmHg 67%
14:00 +13°C° 0.2 mm 2 mps 740 mmHg 71%
15:00 +13°C° 0.2 mm 2 mps 739 mmHg 74%
16:00 +12°C° 0.2 mm 2 mps 739 mmHg 78%
17:00 +10°C° 0.1 mm 2 mps 739 mmHg 83%
18:00 +10°C° 0.1 mm 1 mps 740 mmHg 88%
19:00 +9°C° 0.1 mm 1 mps 740 mmHg 92%
20:00 +9°C° 0 mm 1 mps 740 mmHg 93%
21:00 +9°C° 0 mm 1 mps 740 mmHg 93%
22:00 +8°C° 0 mm 1 mps 741 mmHg 93%
23:00 +9°C° 0 mm 1 mps 741 mmHg 93%
Show more